Home   Weather   Lexington   Past weeks

Flag for USA Past Weather in Lexington, Virginia, USA — Yesterday and Last 2 Weeks

Now
41 °F

Fog.


Feels Like: 33 °F
Forecast: 52 / 63 °F
Wind: 14 mph from Northeast

Location: Hot Springs / Ingalls

Current Time: Apr 25, 2017 at 4:46:01 pm

Latest Report: Apr 25, 2017 at 3:55 pm


Visibility: 5 mi

Pressure: 29.79 "Hg

Humidity: 100%

Dew Point: 41 °F

Location of LexingtonLocation

Past Weather in Lexington — Graph

°F

Lexington Temperature Yesterday

Maximum temperature yesterday: 43 °F (at 12:35 pm)
Minimum temperature yesterday: 36 °F (at 11:15 pm)
Average temperature yesterday: 40 °F

High & Low Weather Summary for the Past Weeks

 TemperatureHumidityPressure
High73 °F (Apr 11, 3:15 pm)100% (Apr 12, 5:55 am)30.42 "Hg (Apr 12, 5:55 am)
Low36 °F (Apr 23, 4:35 am)14% (Apr 11, 3:35 pm)29.80 "Hg (Apr 25, 5:35 am)
Average55 °F64%30.19 "Hg
* Reported Apr 10 3:35 pm — Apr 25 3:35 pm, Lexington, Weather by CustomWeather, © 2017

Note: Actual official high and low records may vary slightly from our data, if they occured in-between our weather recording intervals... More about our weather records

Advertising

Lexington Weather History for the Previous 24 Hours

Scroll right to see more
 ConditionsComfort  
Time TempWeatherWind HumidityBarometerVisibility
3:35 pm
Tue, Apr 25
41 °FFog.10 mph100%29.80 "Hg1 mi
3:15 pm41 °FDrizzle. Low clouds.9 mph100%29.80 "Hg0 mi
2:55 pm41 °FDrizzle. Low clouds.9 mph100%29.80 "Hg0 mi
2:35 pm41 °FFog.9 mph100%29.80 "Hg0 mi
2:15 pm43 °FFog.10 mph93%29.80 "Hg0 mi
1:55 pm43 °FFog.12 mph93%29.80 "Hg0 mi
1:35 pm41 °FFog.12 mph100%29.80 "Hg0 mi
1:15 pm43 °FFog.9 mph93%29.80 "Hg0 mi
12:55 pm43 °FDrizzle. Low clouds.10 mph93%29.80 "Hg0 mi
12:35 pm43 °FDrizzle. Low clouds.12 mph93%29.80 "Hg0 mi
11:55 am43 °FLight rain. Low clouds.15 mph93%29.80 "Hg0 mi
11:15 am41 °FDrizzle. Low clouds.14 mph100%29.82 "Hg0 mi
10:55 am41 °FDrizzle. Low clouds.16 mph100%29.81 "Hg0 mi
10:35 am41 °FDrizzle. Low clouds.16 mph100%29.82 "Hg0 mi
10:15 am41 °FDrizzle. Low clouds.8 mph100%29.82 "Hg0 mi
9:55 am41 °FDrizzle. Low clouds.15 mph100%29.82 "Hg0 mi
9:35 am41 °FDrizzle. Low clouds.13 mph93%29.82 "Hg0 mi
9:15 am41 °FHeavy snow. Low clouds.14 mph93%29.82 "Hg0 mi
8:55 am39 °FHeavy snow. Low clouds.13 mph93%29.82 "Hg0 mi
8:35 am41 °FHeavy snow. Low clouds.10 mph87%29.82 "Hg0 mi
7:55 am41 °FRain. Low clouds.13 mph93%29.82 "Hg0 mi
7:35 am39 °FRain. Low clouds.14 mph93%29.83 "Hg0 mi
6:55 am39 °FHeavy snow. Low clouds.14 mph93%29.81 "Hg0 mi
6:35 am39 °FRain. Low clouds.13 mph93%29.80 "Hg0 mi
6:15 am39 °FRain. Low clouds.14 mph93%29.80 "Hg0 mi
5:55 am37 °FRain. Low clouds.15 mph100%29.80 "Hg0 mi
5:35 am37 °FHeavy snow. Low clouds.13 mph100%29.80 "Hg0 mi
5:15 am37 °FHeavy snow. Low clouds.13 mph100%29.81 "Hg0 mi
4:55 am37 °FRain. Low clouds.16 mph100%29.81 "Hg0 mi
4:35 am37 °FLight rain. Low clouds.12 mph93%29.81 "Hg0 mi
3:55 am37 °FHeavy snow. Low clouds.17 mph93%29.82 "Hg0 mi
3:35 am37 °FHeavy snow. Low clouds.13 mph93%29.82 "Hg0 mi
3:15 am37 °FHeavy rain. Low clouds.13 mph93%29.82 "Hg0 mi
2:55 am37 °FRain. Low clouds.14 mph93%29.83 "Hg0 mi
2:35 am37 °FHeavy rain. Low clouds.14 mph93%29.84 "Hg0 mi
2:15 am37 °FHeavy snow. Low clouds.14 mph93%29.85 "Hg0 mi
1:55 am36 °FHeavy snow. Low clouds.16 mph100%29.85 "Hg0 mi
1:35 am36 °FHeavy snow. Low clouds.14 mph100%29.86 "Hg0 mi
1:15 am36 °FRain. Low clouds.13 mph100%29.87 "Hg0 mi
12:55 am36 °FSnow. Low clouds.12 mph100%29.87 "Hg0 mi
12:35 am36 °FHeavy snow. Low clouds.15 mph100%29.88 "Hg0 mi
11:55 pm
Mon, Apr 24
36 °FRain. Low clouds.16 mph100%29.89 "Hg0 mi
11:35 pm36 °FHeavy snow. Low clouds.15 mph100%29.89 "Hg0 mi
11:15 pm36 °FRain. Low clouds.14 mph100%29.89 "Hg0 mi
10:35 pm37 °FRain. Low clouds.16 mph93%29.90 "Hg0 mi
10:15 pm37 °FRain. Low clouds.16 mph93%29.91 "Hg0 mi
9:55 pm37 °FRain. Low clouds.15 mph93%29.91 "Hg0 mi
9:15 pm37 °FSnow. Low clouds.20 mph93%29.91 "Hg0 mi
8:55 pm37 °FRain. Low clouds.18 mph93%29.92 "Hg0 mi
8:15 pm37 °FHeavy rain. Low clouds.15 mph100%29.91 "Hg0 mi
7:55 pm37 °FRain. Low clouds.16 mph100%29.91 "Hg0 mi
7:35 pm39 °FSnow. Low clouds.20 mph93%29.91 "Hg0 mi
7:15 pm39 °FSnow. Low clouds.16 mph93%29.91 "Hg0 mi
6:55 pm39 °FRain. Low clouds.15 mph93%29.92 "Hg0 mi
6:35 pm39 °FHeavy rain. Low clouds.15 mph93%29.92 "Hg0 mi
6:15 pm39 °FHeavy snow. Low clouds.17 mph93%29.92 "Hg0 mi
5:55 pm39 °FHeavy snow. Low clouds.14 mph93%29.92 "Hg0 mi
5:35 pm39 °FRain. Low clouds.14 mph93%29.92 "Hg0 mi
5:15 pm39 °FRain. Low clouds.12 mph93%29.92 "Hg0 mi
4:55 pm41 °FHeavy rain. Low clouds.15 mph87%29.92 "Hg0 mi
4:35 pm41 °FRain. Low clouds.13 mph100%29.92 "Hg0 mi
Weather by CustomWeather, © 2017

See weather overviewHow to use our weather pages